Retour au catalogue

GLOBALSTAR M094

ActifCommunicationsLEO
NORAD 39074·PAYLOAD·🇺🇸 United States

Lancé Feb 6, 2013 depuis Baikonur Cosmodrome

Loading…

Prochains Passages (prochaines 24 heures)

TLE

FraisSource: Space-Track

Époque: Sep 14, 2026, 09:02 UTC

1 39074U 13005C   26257.37651053 -.00000114  00000-0 -57600-4 0  9994
2 39074  51.9938 239.2454 0000316 107.9842 252.1059 12.62264790629730

Suivez GLOBALSTAR M094 en temps réel avec AllMySat

Download on the App Store